Flag for Germany Weather past 2 weeks in Friesoythe, Lower Saxony, Germany

Now
39 °F

Chilly.


Feels Like: 34 °F
Forecast: 34 / 38 °F
Wind: 7 mph from Southwest

Location: Meppen-Mil

Current Time: Jan 28, 2015 at 2:46:39 AM

Latest Report: Jan 28, 2015 at 1:20 AM


Visibility: 3 mi

Pressure: 30.07 "Hg

Humidity: 93%

Dew point: 37 °F

Location of FriesoytheLocation

Historic Weather in Friesoythe — Graph

°F

Friesoythe temperature yesterday

Maximum temperature yesterday: 43 °F (at 12:20 PM)
Minimum temperature yesterday: 34 °F (at 9:20 AM)
Average temperature yesterday: 39 °F

Past Weeks' High & Low Weather Summary

 TemperatureHumidityPressure
High48 °F (Jan 13, 1:20 AM)100% (Jan 17, 5:20 AM)30.33 "Hg (Jan 17, 5:20 AM)
Low23 °F (Jan 21, 8:20 AM)62% (Jan 15, 11:20 PM)29.33 "Hg (Jan 15, 2:20 PM)
Average36 °F88%29.92 "Hg
* Reported Jan 13 1:20 AM — Jan 28 1:20 AM, Friesoythe, Weather by CustomWeather, © 2014

Note: Actual official high and low records may vary slightly from our data, if they occured in-between our weather recording intervals... More about our weather records

Advertising

Friesoythe weather history for previous 24 hours

 ConditionsComfort  
Time TempWeatherWind HumidityBarometerVisibility
1:20 AM
Jan 28
39 °FChilly.7 mph93%30.07 "Hg3 mi
12:20 AM39 °FChilly.6 mph93%30.09 "Hg4 mi
11:20 PM
Jan 27
39 °FChilly.6 mph93%30.09 "Hg4 mi
10:20 PM39 °FChilly.7 mph93%30.12 "Hg3 mi
9:20 PM39 °FChilly.7 mph93%30.12 "Hg3 mi
8:20 PM39 °FChilly.6 mph93%30.12 "Hg3 mi
7:20 PM41 °FQuite cool.6 mph93%30.12 "Hg3 mi
6:20 PM41 °FQuite cool.7 mph87%30.12 "Hg3 mi
5:20 PM41 °FQuite cool.5 mph87%30.12 "Hg5 mi
4:20 PM43 °FScattered clouds.5 mph81%30.12 "HgN/A
3:20 PM43 °FScattered clouds.6 mph87%30.12 "HgN/A
2:20 PM43 °FBroken clouds.7 mph81%30.12 "HgN/A
1:20 PM43 °FScattered clouds.7 mph81%30.12 "HgN/A
12:20 PM43 °FScattered clouds.8 mph81%30.12 "HgN/A
11:20 AM41 °FPartly sunny.8 mph87%30.12 "HgN/A
10:20 AM37 °FPassing clouds.7 mph93%30.12 "HgN/A
9:20 AM34 °FPassing clouds.5 mph93%30.09 "HgN/A
8:20 AM36 °FPassing clouds.6 mph87%30.09 "HgN/A
7:20 AM36 °FPassing clouds.7 mph93%30.07 "HgN/A
6:20 AM36 °FSprinkles. Partly cloudy.7 mph93%30.07 "Hg6 mi
5:20 AM36 °FChilly.7 mph93%30.07 "Hg5 mi
4:20 AM36 °FChilly.7 mph93%30.09 "Hg4 mi
3:20 AM36 °FChilly.8 mph93%30.07 "HgN/A
2:20 AM36 °FChilly.7 mph93%30.07 "Hg5 mi
Weather by CustomWeather, © 2014

See weather overviewHow to use our weather pages